FW3572 Weather Reports


time (UTC)temp
F
wind
direction
speed
knots
gust
knots
rain 1hr
in
rain 24hr
in
rain mn
in
humidity
%
barometer
mb
20260906220538 86 130 6.1 13.0 0.00 0.01 0.00 100 1011.5
20260906220038 86 188 6.1 13.0 0.00 0.01 0.00 100 1011.5
20260906215538 87 114 5.2 12.2 0.00 0.01 0.00 100 1011.5
20260906215038 87 121 5.2 12.2 0.00 0.01 0.00 100 1011.5
20260906214540 88 131 5.2 12.2 0.00 0.07 0.00 100 1011.5
20260906214037 88 157 4.3 9.6 0.00 0.07 0.00 100 1011.5
20260906213537 88 157 4.3 10.4 0.00 0.07 0.00 100 1011.6
20260906213037 87 151 5.2 12.2 0.00 0.07 0.00 100 1011.6
20260906212538 87 132 7.0 12.2 0.00 0.07 0.00 100 1011.6
20260906212037 87 80 7.0 13.9 0.00 0.07 0.00 100 1011.7
20260906211543 87 139 7.8 13.0 0.00 0.07 0.00 100 1011.7
20260906211037 87 153 7.0 13.0 0.00 0.07 0.00 100 1011.5
20260906210536 88 153 4.3 13.0 0.00 0.07 0.00 100 1011.7
20260906210040 87 133 7.0 13.0 0.00 0.07 0.00 100 1011.7
20260906205534 88 157 6.1 12.2 0.00 0.07 0.00 100 1011.7
20260906205034 88 104 4.3 11.3 0.00 0.07 0.00 100 1011.8
20260906204538 87 181 7.0 11.3 0.00 0.08 0.00 100 1011.9
20260906204036 88 161 5.2 13.0 0.00 0.08 0.00 100 1012.1
20260906203532 87 153 2.6 13.0 0.00 0.08 0.00 100 1012.3
20260906203033 87 188 4.3 13.9 0.00 0.08 0.00 100 1012.4
20260906202632 87 97 7.0 13.9 0.00 0.08 0.00 100 1012.4
20260906202033 88 163 4.3 9.6 0.00 0.08 0.00 100 1012.3
20260906201530 88 166 4.3 9.6 0.00 0.08 0.00 100 1012.4
20260906201030 88 167 5.2 9.6 0.00 0.08 0.00 100 1012.5
20260906200530 88 163 5.2 9.6 0.00 0.08 0.00 100 1012.5
20260906200039 88 142 3.5 8.7 0.00 0.08 0.00 100 1012.5
20260906195529 88 146 4.3 12.2 0.00 0.08 0.00 100 1012.7
20260906195029 88 162 6.1 12.2 0.00 0.08 0.00 100 1012.6
20260906194529 88 155 5.2 9.6 0.00 0.08 0.00 100 1012.6
20260906194028 89 108 3.5 8.7 0.00 0.08 0.00 100 1012.7
20260906193532 89 184 4.3 9.6 0.00 0.08 0.00 100 1012.9
20260906193030 89 131 2.6 10.4 0.00 0.08 0.00 100 1013.0
20260906192528 89 151 3.5 7.8 0.00 0.08 0.00 100 1013.0
20260906192028 87 144 3.5 10.4 0.00 0.08 0.00 100 1013.2
20260906191537 87 123 2.6 10.4 0.00 0.08 0.00 100 1013.3
20260906191027 87 121 4.3 7.8 0.00 0.08 0.00 100 1013.4
20260906190528 88 128 2.6 7.8 0.00 0.08 0.00 100 1013.6
20260906190030 87 135 3.5 7.8 0.00 0.08 0.00 100 1013.6
20260906185529 87 122 2.6 7.8 0.00 0.08 0.00 100 1013.7
20260906185026 87 121 3.5 7.8 0.00 0.08 0.00 100 1013.6
20260906184526 89 150 3.5 7.0 0.00 0.08 0.00 100 1013.8
20260906184026 88 126 1.7 4.3 0.00 0.08 0.00 100 1013.9
20260906183528 86 157 2.6 6.1 0.00 0.08 0.00 100 1014.0
20260906183027 86 136 3.5 6.1 0.00 0.08 0.00 100 1014.1
20260906182528 86 99 1.7 6.1 0.00 0.08 0.00 100 1014.1
20260906182025 86 114 1.7 7.8 0.00 0.08 0.00 100 1014.2
20260906181541 87 155 2.6 7.0 0.00 0.08 0.00 100 1014.1
20260906181025 87 127 1.7 7.8 0.00 0.08 0.00 100 1014.1
20260906180524 87 115 2.6 7.8 0.00 0.08 0.00 100 1014.1
20260906180031 87 142 3.5 7.8 0.00 0.08 0.00 100 1014.1
20260906175525 87 123 1.7 5.2 0.00 0.08 0.00 100 1014.1
20260906175028 87 120 1.7 7.0 0.00 0.08 0.00 100 1014.1
20260906174526 88 78 0.9 7.0 0.00 0.08 0.00 100 1014.1
20260906174027 90 329 0.0 5.2 0.00 0.08 0.00 100 1014.2
20260906173524 92 334 2.6 5.2 0.00 0.08 0.00 100 1014.2
20260906173020 91 302 0.9 4.3 0.00 0.08 0.00 100 1014.2
20260906172517 90 290 0.9 6.1 0.00 0.08 0.00 100 1014.1
20260906172019 91 224 1.7 6.1 0.00 0.08 0.00 100 1014.1
20260906171515 91 323 0.0 7.8 0.00 0.08 0.00 100 1014.1
20260906171015 93 286 1.7 7.8 0.00 0.08 0.00 100 1014.1
20260906170516 93 42 2.6 7.0 0.00 0.08 0.00 100 1014.1
20260906170010 92 339 2.6 7.0 0.00 0.08 0.00 100 1014.2
20260906165511 91 213 0.9 7.0 0.00 0.08 0.00 100 1014.2
20260906165007 91 239 0.9 9.6 0.00 0.08 0.00 100 1014.3
20260906164506 92 322 2.6 7.0 0.00 0.08 0.00 100 1014.4
20260906164006 91 285 1.7 7.0 0.00 0.08 0.00 100 1014.4
20260906163504 90 333 1.7 7.0 0.00 0.08 0.00 100 1014.4
20260906163002 90 313 0.9 7.0 0.00 0.08 0.00 100 1014.4
20260906162504 90 333 1.7 5.2 0.00 0.08 0.00 100 1014.5
20260906162059 90 296 0.9 7.0 0.00 0.08 0.00 100 1014.6
20260906161559 90 292 0.9 7.0 0.00 0.08 0.00 100 1014.6
20260906161057 89 289 0.9 5.2 0.00 0.08 0.00 100 1014.6
20260906160555 89 227 0.0 5.2 0.00 0.08 0.00 100 1014.8
20260906160054 90 303 2.6 6.1 0.00 0.08 0.00 100 1014.9
20260906155552 90 344 0.9 5.2 0.00 0.08 0.00 100 1015.0
20260906155049 89 225 0.9 4.3 0.00 0.08 0.00 100 1015.0
20260906154548 89 341 0.9 2.6 0.00 0.08 0.00 100 1015.2
20260906154048 89 265 0.9 7.0 0.00 0.08 0.00 100 1015.2
20260906153545 88 254 1.7 7.0 0.00 0.08 0.00 100 1015.3
20260906153046 88 287 1.7 5.2 0.00 0.08 0.00 100 1015.4
20260906152545 88 311 1.7 4.3 0.00 0.08 0.00 100 1015.5
20260906152045 88 289 0.9 5.2 0.00 0.08 0.00 100 1015.5
20260906151545 87 334 2.6 5.2 0.00 0.08 0.00 100 1015.5
20260906151040 87 263 0.9 3.5 0.00 0.08 0.00 100 1015.4
20260906150537 87 328 0.0 4.3 0.00 0.08 0.00 100 1015.4
20260906150035 86 282 1.7 3.5 0.00 0.08 0.00 100 1015.6
20260906145534 85 301 0.9 4.3 0.00 0.08 0.00 100 1015.6
20260906145035 86 306 0.0 4.3 0.00 0.08 0.00 100 1015.6
20260906144536 86 256 0.0 3.5 0.00 0.08 0.00 100 1015.6
20260906144029 86 279 0.9 3.5 0.00 0.08 0.00 100 1015.6
20260906143528 86 303 0.0 5.2 0.00 0.08 0.00 100 1015.5
20260906143026 85 349 1.7 5.2 0.00 0.08 0.00 100 1015.4
20260906142525 85 324 0.0 4.3 0.00 0.08 0.00 100 1015.4
20260906142024 85 326 1.7 5.2 0.00 0.08 0.00 100 1015.3
20260906141529 84 309 1.7 7.0 0.00 0.08 0.00 100 1015.3
20260906141021 84 299 0.9 7.0 0.00 0.08 0.00 100 1015.4
20260906140520 83 284 0.0 4.3 0.00 0.08 0.00 100 1015.4
20260906140020 83 290 0.9 4.3 0.00 0.08 0.00 100 1015.4
20260906135518 83 298 0.0 7.0 0.00 0.08 0.00 100 1015.4
20260906135018 82 282 1.7 7.0 0.00 0.08 0.00 100 1015.4
20260906134521 82 298 0.0 4.3 0.00 0.08 0.00 100 1015.3
20260906134018 82 303 0.0 5.2 0.00 0.08 0.00 100 1015.4
20260906133516 82 283 0.9 4.3 0.00 0.08 0.00 100 1015.4
20260906133015 82 249 0.0 4.3 0.00 0.08 0.00 100 1015.6
20260906132515 81 309 0.0 4.3 0.00 0.08 0.00 100 1015.6
20260906132015 81 272 0.0 6.1 0.00 0.08 0.00 100 1015.5
20260906131512 80 240 1.7 6.1 0.00 0.08 0.00 100 1015.4
20260906131010 80 16 2.6 5.2 0.00 0.08 0.00 100 1015.4
20260906130509 80 256 0.0 7.0 0.00 0.08 0.00 100 1015.6
20260906130008 79 235 1.7 7.8 0.00 0.08 0.00 100 1015.7
20260906125507 79 249 0.0 7.8 0.00 0.08 0.00 100 1015.6
20260906125007 79 280 1.7 7.0 0.00 0.08 0.00 100 1015.5
20260906124506 79 231 0.0 3.5 0.00 0.08 0.00 100 1015.5
20260906124005 78 248 0.0 3.5 0.00 0.08 0.00 100 1015.6
20260906123504 78 231 0.0 7.0 0.00 0.08 0.00 100 1015.5
20260906123005 77 234 1.7 7.0 0.00 0.08 0.00 100 1015.5
20260906122502 77 244 0.0 4.3 0.00 0.08 0.00 100 1015.3
20260906122002 77 234 0.9 4.3 0.00 0.08 0.00 100 1015.3
20260906121601 76 244 0.0 3.5 0.00 0.08 0.00 100 1015.3
20260906121101 76 292 0.0 3.5 0.00 0.08 0.00 100 1015.3
20260906120603 75 278 0.9 4.3 0.00 0.08 0.00 100 1015.2
20260906120059 75 227 0.9 4.3 0.00 0.08 0.00 100 1015.2
20260906115559 75 227 0.9 3.5 0.00 0.08 0.00 100 1015.1
20260906115100 75 228 0.9 3.5 0.00 0.08 0.00 100 1015.1
20260906114601 75 241 0.0 4.3 0.00 0.08 0.00 100 1015.0
20260906114100 75 241 0.9 4.3 0.00 0.08 0.00 100 1015.1
20260906113559 75 238 0.9 6.1 0.00 0.08 0.00 100 1015.0
20260906113058 75 231 0.0 5.2 0.00 0.08 0.00 100 1014.9
20260906112558 75 232 0.0 6.1 0.00 0.08 0.00 100 1014.7
20260906112058 75 241 0.9 6.1 0.00 0.08 0.00 100 1014.7
20260906111600 75 236 0.9 3.5 0.00 0.08 0.00 100 1014.6
20260906111059 75 240 1.7 3.5 0.00 0.08 0.00 100 1014.5
20260906110557 75 232 0.0 4.3 0.00 0.08 0.00 100 1014.5
20260906110058 75 234 0.9 5.2 0.00 0.08 0.00 100 1014.4
20260906105557 75 242 0.9 6.1 0.00 0.08 0.00 100 1014.2
20260906105057 75 233 0.0 2.6 0.00 0.08 0.00 100 1014.1
20260906104603 75 229 0.9 2.6 0.00 0.08 0.00 100 1014.0
20260906104057 75 227 0.9 2.6 0.00 0.08 0.00 100 1014.1
20260906103556 75 227 0.0 2.6 0.00 0.08 0.00 100 1013.9
20260906103058 75 227 0.0 2.6 0.00 0.08 0.00 100 1013.9
20260906102557 75 227 0.0 1.7 0.00 0.08 0.00 100 1013.8
20260906102056 75 227 0.0 0.9 0.00 0.08 0.00 100 1013.8
20260906101559 75 227 0.0 3.5 0.00 0.08 0.00 100 1013.7
20260906101100 75 227 0.9 3.5 0.00 0.08 0.00 100 1013.6
20260906100600 75 227 0.0 3.5 0.00 0.08 0.00 100 1013.6
20260906100055 75 225 0.0 2.6 0.00 0.08 0.00 100 1013.6
20260906095558 75 225 0.0 2.6 0.00 0.08 0.00 100 1013.5
20260906095056 75 223 0.0 2.6 0.00 0.08 0.00 100 1013.4
20260906094608 75 220 0.0 2.6 0.00 0.08 0.00 100 1013.5
20260906094054 75 211 0.0 0.0 0.00 0.08 0.00 100 1013.5
20260906093554 75 212 0.0 0.0 0.00 0.08 0.00 100 1013.3
20260906093128 75 238 0.0 0.0 0.00 0.08 0.00 100 1013.1
20260906092555 75 242 0.0 0.0 0.00 0.08 0.00 100 1012.9
20260906092055 75 245 0.0 0.0 0.00 0.08 0.00 100 1012.8
20260906091605 75 246 0.0 0.0 0.00 0.08 0.00 100 1012.8
20260906091057 75 248 0.0 0.0 0.00 0.08 0.00 100 1012.8
20260906090555 76 248 0.0 0.0 0.00 0.08 0.00 100 1012.7
20260906090054 76 248 0.0 3.5 0.00 0.08 0.00 100 1012.6
20260906085555 76 234 0.9 3.5 0.00 0.08 0.00 100 1012.5
20260906085054 76 244 0.9 3.5 0.00 0.08 0.00 100 1012.5
20260906084553 76 268 0.9 3.5 0.00 0.08 0.00 100 1012.6
20260906084055 76 275 0.0 3.5 0.00 0.08 0.00 100 1012.6
20260906083552 76 294 0.0 3.5 0.00 0.08 0.00 100 1012.7
20260906083052 76 285 0.0 3.5 0.00 0.08 0.00 100 1012.7
20260906082552 76 283 0.0 2.6 0.00 0.08 0.00 100 1012.8
20260906082051 76 280 0.0 2.6 0.00 0.08 0.00 100 1012.9
20260906081552 76 241 0.0 4.3 0.00 0.08 0.00 100 1012.9
20260906081051 76 234 1.7 4.3 0.00 0.08 0.00 100 1012.6
20260906080551 76 227 0.0 3.5 0.00 0.08 0.00 100 1012.7
20260906080050 76 273 0.0 2.6 0.00 0.08 0.00 100 1012.8
20260906075550 76 242 0.0 4.3 0.00 0.08 0.00 100 1012.7
20260906075051 76 234 1.7 4.3 0.00 0.08 0.00 100 1012.5
20260906074553 76 254 0.9 2.6 0.00 0.08 0.00 100 1012.6
20260906074049 76 261 0.0 2.6 0.00 0.08 0.00 100 1012.7
20260906073548 76 249 0.0 0.0 0.00 0.08 0.00 100 1013.0
20260906073047 76 255 0.0 0.0 0.00 0.08 0.00 100 1012.9
20260906072549 76 259 0.0 3.5 0.00 0.08 0.00 100 1012.9
20260906072046 76 275 0.9 3.5 0.00 0.08 0.00 100 1013.0
20260906071546 76 257 0.0 2.6 0.00 0.08 0.00 100 1013.2
20260906071046 76 285 0.9 3.5 0.00 0.08 0.00 100 1013.2
20260906070545 76 277 0.9 3.5 0.00 0.08 0.00 100 1013.2
20260906070045 76 233 0.0 3.5 0.00 0.08 0.00 100 1013.2
20260906065545 76 233 0.0 3.5 0.00 0.08 0.00 100 1013.2
20260906065044 76 242 0.0 3.5 0.00 0.08 0.00 100 1013.4
20260906064544 76 242 0.0 4.3 0.00 0.08 0.00 100 1013.4
20260906064043 76 242 1.7 4.3 0.00 0.08 0.00 100 1013.6
20260906063542 76 246 0.0 4.3 0.00 0.08 0.00 100 1013.6
20260906063041 76 240 0.0 5.2 0.00 0.08 0.00 100 1013.7
20260906062540 76 202 1.7 5.2 0.00 0.08 0.00 100 1013.9
20260906062040 76 222 0.0 4.3 0.00 0.08 0.00 100 1013.9
20260906061540 76 238 0.9 4.3 0.00 0.08 0.00 100 1014.0
20260906061039 76 195 0.0 3.5 0.00 0.08 0.00 100 1014.1
20260906060538 76 215 0.9 3.5 0.00 0.08 0.00 100 1014.0
20260906060036 75 212 0.9 3.5 0.00 0.08 0.00 100 1014.3
20260906055538 75 210 0.9 3.5 0.00 0.08 0.00 100 1014.5
20260906055037 75 217 0.0 4.3 0.00 0.08 0.00 100 1014.6
20260906054540 75 241 1.7 4.3 0.00 0.08 0.00 100 1014.6
20260906054037 75 202 0.0 0.0 0.00 0.08 0.00 100 1014.6
20260906053533 75 202 0.0 3.5 0.00 0.08 0.00 100 1014.7
20260906053039 75 205 0.9 3.5 0.00 0.08 0.00 100 1014.7
20260906052534 75 183 0.0 1.7 0.00 0.08 0.00 100 1014.7
20260906052034 75 183 0.0 2.6 0.00 0.08 0.00 100 1014.8
20260906051546 75 175 0.0 2.6 0.00 0.08 0.00 100 1014.9
20260906051031 75 191 0.0 3.5 0.00 0.08 0.00 100 1014.9
20260906050528 75 192 0.0 3.5 0.00 0.08 0.00 100 1015.0
20260906050026 75 192 0.9 3.5 0.00 0.08 0.00 100 1014.9
20260906045528 75 195 1.7 2.6 0.00 0.08 0.00 100 1015.1
20260906045026 75 200 0.9 2.6 0.00 0.08 0.00 100 1015.1
20260906044525 75 213 0.0 2.6 0.00 0.08 0.00 100 1015.1
20260906044025 75 209 0.0 2.6 0.00 0.08 0.00 100 1015.1
20260906043525 75 207 0.0 3.5 0.00 0.08 0.00 100 1015.1
20260906043025 75 207 0.9 3.5 0.00 0.08 0.00 100 1015.3
20260906042525 75 222 0.9 2.6 0.00 0.08 0.00 100 1015.3
20260906042024 75 222 0.0 2.6 0.00 0.08 0.00 100 1015.3
20260906041524 75 204 0.0 2.6 0.00 0.08 0.00 100 1015.3
20260906041025 75 205 0.0 5.2 0.00 0.08 0.00 100 1015.2
20260906040523 75 204 1.7 10.4 0.00 0.08 0.00 100 1015.1
20260906040028 75 222 2.6 10.4 0.00 0.08 0.00 100 1014.9
20260906035520 75 192 1.7 5.2 0.00 0.08 0.00 100 1015.0
20260906035023 75 219 2.6 7.0 0.00 0.08 0.00 100 1015.0
20260906034522 75 213 2.6 5.2 0.00 0.08 0.08 100 1014.8
20260906034018 75 180 1.7 7.0 0.00 0.08 0.08 100 1014.9
20260906033519 75 227 0.9 7.0 0.00 0.08 0.08 100 1015.0
20260906033030 75 235 1.7 6.1 0.00 0.08 0.08 100 1014.9
20260906032518 75 240 1.7 6.1 0.00 0.08 0.08 100 1014.7
20260906032019 75 207 0.9 6.1 0.00 0.08 0.08 100 1014.7
20260906031518 75 219 1.7 7.0 0.00 0.08 0.08 100 1014.9
20260906031018 75 228 0.9 4.3 0.01 0.08 0.08 100 1015.0
20260906030518 75 236 1.7 3.5 0.01 0.08 0.08 100 1015.1
20260906030018 75 236 0.0 0.0 0.01 0.08 0.08 100 1015.2
20260906025517 75 236 0.0 0.0 0.01 0.08 0.08 100 1015.2
20260906025019 75 237 0.0 0.0 0.01 0.08 0.08 100 1015.3
20260906024532 75 237 0.0 0.0 0.01 0.08 0.08 100 1015.2
20260906024016 75 237 0.0 2.6 0.01 0.08 0.08 100 1015.1
20260906023516 75 237 0.0 4.3 0.01 0.08 0.08 100 1015.1
20260906023019 75 236 0.0 3.5 0.01 0.08 0.08 100 1015.1
20260906022516 75 206 0.0 3.5 0.01 0.08 0.08 100 1015.2
20260906022019 75 194 0.0 3.5 0.01 0.08 0.08 100 1015.1
20260906021517 75 224 0.0 3.5 0.01 0.08 0.08 100 1015.3
20260906021016 75 220 0.9 4.3 0.00 0.07 0.07 100 1015.3
20260906020516 75 236 0.9 4.3 0.00 0.07 0.07 100 1015.1
20260906020015 75 242 1.7 3.5 0.00 0.07 0.07 100 1015.2
20260906015514 75 248 0.0 2.6 0.00 0.07 0.07 100 1015.1
20260906015015 76 257 0.0 3.5 0.00 0.07 0.07 100 1015.1
20260906014524 76 200 0.0 3.5 0.00 0.07 0.07 100 1015.1
20260906014013 76 288 0.9 3.5 0.00 0.07 0.07 100 1015.1
20260906013514 75 253 0.9 3.5 0.00 0.07 0.07 100 1015.0
20260906013034 76 233 0.0 3.5 0.00 0.07 0.07 100 1014.9
20260906012517 75 234 1.7 4.3 0.00 0.07 0.07 100 1014.9
20260906012014 75 192 1.7 6.1 0.00 0.07 0.07 100 1015.1
20260906011518 76 167 1.7 5.2 0.00 0.07 0.07 100 1015.2
20260906011013 76 227 2.6 5.2 0.00 0.07 0.07 100 1015.3
20260906010514 76 188 2.6 8.7 0.00 0.07 0.07 100 1015.4
20260906010013 76 161 2.6 8.7 0.00 0.07 0.07 100 1015.5
20260906005512 76 165 1.7 8.7 0.00 0.07 0.07 100 1015.7
20260906005012 75 165 4.3 11.3 0.00 0.07 0.07 100 1015.9
20260906004511 75 142 3.5 13.0 0.00 0.07 0.07 100 1015.9
20260906004012 75 181 7.0 13.0 0.00 0.07 0.07 100 1016.0
20260906003511 75 157 4.3 13.0 0.00 0.07 0.07 100 1016.1
20260906003012 75 135 7.8 13.0 0.00 0.07 0.07 100 1016.1
20260906002509 76 163 5.2 11.3 0.00 0.07 0.07 100 1016.1
20260906002008 76 181 4.3 11.3 0.00 0.07 0.07 100 1016.0
20260906001506 77 222 4.3 9.6 0.00 0.07 0.07 100 1016.0
20260906001005 78 246 4.3 14.8 0.00 0.07 0.07 100 1015.8
20260906000506 80 208 4.3 14.8 0.00 0.07 0.07 100 1016.1
20260906000004 80 94 0.0 1.7 0.00 0.07 0.07 100 1015.3
20260905235506 80 96 0.0 3.5 0.00 0.07 0.07 100 1015.3
20260905235004 80 44 0.9 5.2 0.00 0.07 0.07 100 1015.5
20260905234504 80 119 1.7 13.9 0.00 0.07 0.07 100 1015.7
20260905234003 80 51 4.3 13.9 0.00 0.07 0.07 100 1015.8
20260905233503 81 323 5.2 12.2 0.00 0.07 0.07 100 1015.8
20260905233003 81 97 0.9 6.1 0.00 0.07 0.07 100 1015.2
20260905232503 81 104 1.7 3.5 0.00 0.07 0.07 100 1014.8
20260905232003 81 132 0.0 3.5 0.00 0.07 0.07 100 1014.6
20260905231503 81 132 1.7 5.2 0.00 0.07 0.07 100 1014.5
20260905231002 81 153 1.7 4.3 0.00 0.07 0.07 100 1014.6
20260905230503 81 163 2.6 5.2 0.00 0.07 0.07 100 1014.6
20260905230002 80 144 1.7 5.2 0.00 0.07 0.07 100 1014.5
20260905225502 80 130 2.6 6.1 0.00 0.07 0.07 100 1014.4
20260905225002 80 117 1.7 6.1 0.00 0.07 0.07 100 1014.5
20260905224503 80 156 1.7 6.1 0.00 0.07 0.07 100 1014.8
20260905224001 80 130 2.6 6.1 0.00 0.07 0.07 100 1014.8
20260905223501 80 150 1.7 8.7 0.00 0.07 0.07 100 1014.9
20260905223002 79 109 2.6 11.3 0.00 0.07 0.07 100 1015.0
20260905222501 79 133 3.5 11.3 0.00 0.07 0.07 100 1014.7
20260905222100 79 136 2.6 7.8 0.00 0.07 0.07 100 1014.5
20260905221615 79 126 0.9 6.1 0.01 0.07 0.07 100 1014.2
20260905221102 79 122 1.7 6.1 0.01 0.07 0.07 100 1013.7